owner,sensor,date,latitude,longitude,air_pressure(mBar),qcFlag 
TABS,ioos:station:wmo:42047:1,2019-02-01T00:00:00Z,27.8966,-93.5973,1017.79,11111222 
TABS,ioos:station:wmo:42047:1,2019-02-01T00:30:00Z,27.8966,-93.5973,1018.18,11111222 
TABS,ioos:station:wmo:42047:1,2019-02-01T01:00:00Z,27.8966,-93.5973,1018.19,11111222 
TABS,ioos:station:wmo:42047:1,2019-02-01T01:30:00Z,27.8966,-93.5973,1018.95,11111222 
TABS,ioos:station:wmo:42047:1,2019-02-01T02:00:00Z,27.8966,-93.5973,1018.24,11111222 
TABS,ioos:station:wmo:42047:1,2019-02-01T02:30:00Z,27.8966,-93.5973,1019.42,11111222 
TABS,ioos:station:wmo:42047:1,2019-02-01T03:00:00Z,27.8966,-93.5973,1018.98,11111222 
TABS,ioos:station:wmo:42047:1,2019-02-01T03:30:00Z,27.8966,-93.5973,1019.16,11111222 
TABS,ioos:station:wmo:42047:1,2019-02-01T04:00:00Z,27.8966,-93.5973,1018.68,11111222 
TABS,ioos:station:wmo:42047:1,2019-02-01T04:30:00Z,27.8966,-93.5973,1018.76,11111222 
TABS,ioos:station:wmo:42047:1,2019-02-01T05:00:00Z,27.8966,-93.5973,1018.39,11111222 
TABS,ioos:station:wmo:42047:1,2019-02-01T05:30:00Z,27.8966,-93.5973,1018.11,11111222 
TABS,ioos:station:wmo:42047:1,2019-02-01T06:00:00Z,27.8966,-93.5973,1018.02,11111222 
TABS,ioos:station:wmo:42047:1,2019-02-01T06:30:00Z,27.8966,-93.5973,1017.71,11111222 
TABS,ioos:station:wmo:42047:1,2019-02-01T07:00:00Z,27.8966,-93.5973,1018.43,11111222 
TABS,ioos:station:wmo:42047:1,2019-02-01T07:30:00Z,27.8966,-93.5973,1018.24,11111222 
TABS,ioos:station:wmo:42047:1,2019-02-01T08:00:00Z,27.8966,-93.5973,1016.59,11111222 
TABS,ioos:station:wmo:42047:1,2019-02-01T08:30:00Z,27.8966,-93.5973,1016.84,11111222 
TABS,ioos:station:wmo:42047:1,2019-02-01T09:00:00Z,27.8966,-93.5973,1016.28,11111222 
TABS,ioos:station:wmo:42047:1,2019-02-01T09:30:00Z,27.8966,-93.5973,1016.41,11111222 
TABS,ioos:station:wmo:42047:1,2019-02-01T10:00:00Z,27.8966,-93.5973,1016.37,11111222 
TABS,ioos:station:wmo:42047:1,2019-02-01T10:30:00Z,27.8966,-93.5973,1016.7,11111222 
TABS,ioos:station:wmo:42047:1,2019-02-01T11:00:00Z,27.8966,-93.5973,1016.35,11111222 
TABS,ioos:station:wmo:42047:1,2019-02-01T11:30:00Z,27.8966,-93.5973,1016.85,11111222 
TABS,ioos:station:wmo:42047:1,2019-02-01T12:00:00Z,27.8966,-93.5973,1017.61,11111222 
TABS,ioos:station:wmo:42047:1,2019-02-01T12:30:00Z,27.8966,-93.5973,1017.62,11111222 
TABS,ioos:station:wmo:42047:1,2019-02-01T13:00:00Z,27.8966,-93.5973,1018.15,11111222 
TABS,ioos:station:wmo:42047:1,2019-02-01T13:30:00Z,27.8966,-93.5973,1018.3,11111222 
TABS,ioos:station:wmo:42047:1,2019-02-01T14:00:00Z,27.8966,-93.5973,1019.23,11111222 
TABS,ioos:station:wmo:42047:1,2019-02-01T14:30:00Z,27.8966,-93.5973,1019.24,11111222 
TABS,ioos:station:wmo:42047:1,2019-02-01T15:00:00Z,27.8966,-93.5973,1019.06,11111222 
TABS,ioos:station:wmo:42047:1,2019-02-01T15:30:00Z,27.8966,-93.5973,1019.34,11111222 
TABS,ioos:station:wmo:42047:1,2019-02-01T16:00:00Z,27.8966,-93.5973,1019.32,11111222 
TABS,ioos:station:wmo:42047:1,2019-02-01T16:30:00Z,27.8966,-93.5973,1019.4,11111222 
TABS,ioos:station:wmo:42047:1,2019-02-01T17:00:00Z,27.8966,-93.5973,1019.28,11111222 
TABS,ioos:station:wmo:42047:1,2019-02-01T17:30:00Z,27.8966,-93.5973,1019.24,11111222 
TABS,ioos:station:wmo:42047:1,2019-02-01T18:00:00Z,27.8966,-93.5973,1019.07,11111222 
TABS,ioos:station:wmo:42047:1,2019-02-01T18:30:00Z,27.8966,-93.5973,1018.66,11111222 
TABS,ioos:station:wmo:42047:1,2019-02-01T19:00:00Z,27.8966,-93.5973,1018.34,11111222 
TABS,ioos:station:wmo:42047:1,2019-02-01T19:30:00Z,27.8966,-93.5973,1018.33,11111222 
TABS,ioos:station:wmo:42047:1,2019-02-01T20:00:00Z,27.8966,-93.5973,1018.45,11111222 
TABS,ioos:station:wmo:42047:1,2019-02-01T20:30:00Z,27.8966,-93.5973,1018.46,11111222 
TABS,ioos:station:wmo:42047:1,2019-02-01T21:00:00Z,27.8966,-93.5973,1018.75,11111222 
TABS,ioos:station:wmo:42047:1,2019-02-01T21:30:00Z,27.8966,-93.5973,1018.62,11111222 
TABS,ioos:station:wmo:42047:1,2019-02-01T22:00:00Z,27.8966,-93.5973,1018.53,11111222 
TABS,ioos:station:wmo:42047:1,2019-02-01T22:30:00Z,27.8966,-93.5973,1018.61,11111222 
TABS,ioos:station:wmo:42047:1,2019-02-01T23:00:00Z,27.8966,-93.5973,1018.22,11111222 
TABS,ioos:station:wmo:42047:1,2019-02-01T23:30:00Z,27.8966,-93.5973,1018.73,11111222 
TABS,ioos:station:wmo:42047:1,2019-02-02T00:00:00Z,27.8966,-93.5973,1018.65,11111222 
TABS,ioos:station:wmo:42047:1,2019-02-02T00:30:00Z,27.8966,-93.5973,1018.76,11111222 
TABS,ioos:station:wmo:42047:1,2019-02-02T01:00:00Z,27.8966,-93.5973,1018.95,11111222 
TABS,ioos:station:wmo:42047:1,2019-02-02T01:30:00Z,27.8966,-93.5973,1019.04,11111222 
TABS,ioos:station:wmo:42047:1,2019-02-02T02:00:00Z,27.8966,-93.5973,1019.46,11111222 
TABS,ioos:station:wmo:42047:1,2019-02-02T02:30:00Z,27.8966,-93.5973,1019.48,11111222 
TABS,ioos:station:wmo:42047:1,2019-02-02T03:00:00Z,27.8966,-93.5973,1019.55,11111222 
TABS,ioos:station:wmo:42047:1,2019-02-02T03:30:00Z,27.8966,-93.5973,1019.74,11111222 
TABS,ioos:station:wmo:42047:1,2019-02-02T04:00:00Z,27.8966,-93.5973,1019.57,11111222 
TABS,ioos:station:wmo:42047:1,2019-02-02T04:30:00Z,27.8966,-93.5973,1019.65,11111222 
TABS,ioos:station:wmo:42047:1,2019-02-02T05:00:00Z,27.8966,-93.5973,1019.65,11111222 
TABS,ioos:station:wmo:42047:1,2019-02-02T05:30:00Z,27.8966,-93.5973,1019.71,11111222 
TABS,ioos:station:wmo:42047:1,2019-02-02T06:00:00Z,27.8966,-93.5973,1019.74,11111222 
TABS,ioos:station:wmo:42047:1,2019-02-02T06:30:00Z,27.8966,-93.5973,1019.6,11111222 
TABS,ioos:station:wmo:42047:1,2019-02-02T07:00:00Z,27.8966,-93.5973,1019.48,11111222 
TABS,ioos:station:wmo:42047:1,2019-02-02T07:30:00Z,27.8966,-93.5973,1019.17,11111222 
TABS,ioos:station:wmo:42047:1,2019-02-02T08:00:00Z,27.8966,-93.5973,1019.18,11111222 
TABS,ioos:station:wmo:42047:1,2019-02-02T08:30:00Z,27.8966,-93.5973,1018.84,11111222 
TABS,ioos:station:wmo:42047:1,2019-02-02T09:00:00Z,27.8966,-93.5973,1019.13,11111222 
TABS,ioos:station:wmo:42047:1,2019-02-02T09:30:00Z,27.8966,-93.5973,1018.97,11111222 
TABS,ioos:station:wmo:42047:1,2019-02-02T10:00:00Z,27.8966,-93.5973,1019.17,11111222 
TABS,ioos:station:wmo:42047:1,2019-02-02T10:30:00Z,27.8966,-93.5973,1019.34,11111222 
TABS,ioos:station:wmo:42047:1,2019-02-02T11:00:00Z,27.8966,-93.5973,1019.18,11111222 
TABS,ioos:station:wmo:42047:1,2019-02-02T11:30:00Z,27.8966,-93.5973,1019.28,11111222 
TABS,ioos:station:wmo:42047:1,2019-02-02T12:00:00Z,27.8966,-93.5973,1019.38,11111222 
TABS,ioos:station:wmo:42047:1,2019-02-02T12:30:00Z,27.8966,-93.5973,1019.18,11111222 
TABS,ioos:station:wmo:42047:1,2019-02-02T13:00:00Z,27.8966,-93.5973,1019.59,11111222 
TABS,ioos:station:wmo:42047:1,2019-02-02T13:30:00Z,27.8966,-93.5973,1019.5,11111222 
TABS,ioos:station:wmo:42047:1,2019-02-02T14:00:00Z,27.8966,-93.5973,1019.52,11111222 
TABS,ioos:station:wmo:42047:1,2019-02-02T14:30:00Z,27.8966,-93.5973,1019.7,11111222 
TABS,ioos:station:wmo:42047:1,2019-02-02T15:00:00Z,27.8966,-93.5973,1020.35,11111222 
TABS,ioos:station:wmo:42047:1,2019-02-02T15:30:00Z,27.8966,-93.5973,1020.53,11111222 
TABS,ioos:station:wmo:42047:1,2019-02-02T16:00:00Z,27.8966,-93.5973,1020.44,11111222 
TABS,ioos:station:wmo:42047:1,2019-02-02T16:30:00Z,27.8966,-93.5973,1020.42,11111222 
TABS,ioos:station:wmo:42047:1,2019-02-02T17:00:00Z,27.8966,-93.5973,1020.23,11111222 
TABS,ioos:station:wmo:42047:1,2019-02-02T17:30:00Z,27.8966,-93.5973,1019.98,11111222 
TABS,ioos:station:wmo:42047:1,2019-02-02T18:00:00Z,27.8966,-93.5973,1019.53,11111222 
TABS,ioos:station:wmo:42047:1,2019-02-02T18:30:00Z,27.8966,-93.5973,1018.8,11111222 
TABS,ioos:station:wmo:42047:1,2019-02-02T19:00:00Z,27.8966,-93.5973,1018.06,11111222 
TABS,ioos:station:wmo:42047:1,2019-02-02T19:30:00Z,27.8966,-93.5973,1017.78,11111222 
TABS,ioos:station:wmo:42047:1,2019-02-02T20:00:00Z,27.8966,-93.5973,1017.54,11111222 
TABS,ioos:station:wmo:42047:1,2019-02-02T20:30:00Z,27.8966,-93.5973,1016.96,11111222 
TABS,ioos:station:wmo:42047:1,2019-02-02T21:00:00Z,27.8966,-93.5973,1016.91,11111222 
TABS,ioos:station:wmo:42047:1,2019-02-02T21:30:00Z,27.8966,-93.5973,1016.74,11111222 
TABS,ioos:station:wmo:42047:1,2019-02-02T22:00:00Z,27.8966,-93.5973,1016.82,11111222 
TABS,ioos:station:wmo:42047:1,2019-02-02T22:30:00Z,27.8966,-93.5973,1016.72,11111222 
TABS,ioos:station:wmo:42047:1,2019-02-02T23:00:00Z,27.8966,-93.5973,1016.65,11111222 
TABS,ioos:station:wmo:42047:1,2019-02-02T23:30:00Z,27.8966,-93.5973,1016.72,11111222 
TABS,ioos:station:wmo:42047:1,2019-02-03T00:00:00Z,27.8966,-93.5973,1016.6,11111222 
TABS,ioos:station:wmo:42047:1,2019-02-03T00:30:00Z,27.8966,-93.5973,1016.7,11111222 
TABS,ioos:station:wmo:42047:1,2019-02-03T01:00:00Z,27.8966,-93.5973,1016.97,11111222 
TABS,ioos:station:wmo:42047:1,2019-02-03T01:30:00Z,27.8966,-93.5973,1016.95,11111222 
TABS,ioos:station:wmo:42047:1,2019-02-03T02:00:00Z,27.8966,-93.5973,1016.61,11111222 
TABS,ioos:station:wmo:42047:1,2019-02-03T02:30:00Z,27.8966,-93.5973,1017.12,11111222 
TABS,ioos:station:wmo:42047:1,2019-02-03T03:00:00Z,27.8966,-93.5973,1017.21,11111222 
TABS,ioos:station:wmo:42047:1,2019-02-03T03:30:00Z,27.8966,-93.5973,1017.29,11111222 
TABS,ioos:station:wmo:42047:1,2019-02-03T04:00:00Z,27.8966,-93.5973,1017.14,11111222 
TABS,ioos:station:wmo:42047:1,2019-02-03T04:30:00Z,27.8966,-93.5973,1016.76,11111222 
TABS,ioos:station:wmo:42047:1,2019-02-03T05:00:00Z,27.8966,-93.5973,1017.02,11111222 
TABS,ioos:station:wmo:42047:1,2019-02-03T05:30:00Z,27.8966,-93.5973,1017.0,11111222 
TABS,ioos:station:wmo:42047:1,2019-02-03T06:00:00Z,27.8966,-93.5973,1016.72,11111222 
TABS,ioos:station:wmo:42047:1,2019-02-03T06:30:00Z,27.8966,-93.5973,1016.51,11111222 
TABS,ioos:station:wmo:42047:1,2019-02-03T07:00:00Z,27.8966,-93.5973,1016.46,11111222 
TABS,ioos:station:wmo:42047:1,2019-02-03T07:30:00Z,27.8966,-93.5973,1016.24,11111222 
TABS,ioos:station:wmo:42047:1,2019-02-03T08:00:00Z,27.8966,-93.5973,1016.02,11111222 
TABS,ioos:station:wmo:42047:1,2019-02-03T08:30:00Z,27.8966,-93.5973,1015.61,11111222 
TABS,ioos:station:wmo:42047:1,2019-02-03T09:00:00Z,27.8966,-93.5973,1015.52,11111222 
TABS,ioos:station:wmo:42047:1,2019-02-03T09:30:00Z,27.8966,-93.5973,1015.56,11111222 
TABS,ioos:station:wmo:42047:1,2019-02-03T10:00:00Z,27.8966,-93.5973,1015.34,11111222 
TABS,ioos:station:wmo:42047:1,2019-02-03T10:30:00Z,27.8966,-93.5973,1015.11,11111222 
TABS,ioos:station:wmo:42047:1,2019-02-03T11:00:00Z,27.8966,-93.5973,1015.15,11111222 
TABS,ioos:station:wmo:42047:1,2019-02-03T11:30:00Z,27.8966,-93.5973,1015.25,11111222 
TABS,ioos:station:wmo:42047:1,2019-02-03T12:00:00Z,27.8966,-93.5973,1015.54,11111222 
TABS,ioos:station:wmo:42047:1,2019-02-03T12:30:00Z,27.8966,-93.5973,1015.56,11111222 
TABS,ioos:station:wmo:42047:1,2019-02-03T13:00:00Z,27.8966,-93.5973,1015.42,11111222 
TABS,ioos:station:wmo:42047:1,2019-02-03T13:30:00Z,27.8966,-93.5973,1015.79,11111222 
TABS,ioos:station:wmo:42047:1,2019-02-03T14:00:00Z,27.8966,-93.5973,1016.15,11111222 
TABS,ioos:station:wmo:42047:1,2019-02-03T14:30:00Z,27.8966,-93.5973,1016.45,11111222 
TABS,ioos:station:wmo:42047:1,2019-02-03T15:00:00Z,27.8966,-93.5973,1016.66,11111222 
TABS,ioos:station:wmo:42047:1,2019-02-03T15:30:00Z,27.8966,-93.5973,1016.93,11111222 
TABS,ioos:station:wmo:42047:1,2019-02-03T16:00:00Z,27.8966,-93.5973,1017.0,11111222 
TABS,ioos:station:wmo:42047:1,2019-02-03T16:30:00Z,27.8966,-93.5973,1016.82,11111222 
TABS,ioos:station:wmo:42047:1,2019-02-03T17:00:00Z,27.8966,-93.5973,1016.64,11111222 
TABS,ioos:station:wmo:42047:1,2019-02-03T17:30:00Z,27.8966,-93.5973,1016.31,11111222 
TABS,ioos:station:wmo:42047:1,2019-02-03T18:00:00Z,27.8966,-93.5973,1015.95,11111222 
TABS,ioos:station:wmo:42047:1,2019-02-03T18:30:00Z,27.8966,-93.5973,1015.49,11111222 
TABS,ioos:station:wmo:42047:1,2019-02-03T19:00:00Z,27.8966,-93.5973,1014.83,11111222 
TABS,ioos:station:wmo:42047:1,2019-02-03T19:30:00Z,27.8966,-93.5973,1014.28,11111222 
TABS,ioos:station:wmo:42047:1,2019-02-03T20:00:00Z,27.8966,-93.5973,1014.02,11111222 
TABS,ioos:station:wmo:42047:1,2019-02-03T20:30:00Z,27.8966,-93.5973,1013.72,11111222 
TABS,ioos:station:wmo:42047:1,2019-02-03T21:00:00Z,27.8966,-93.5973,1013.25,11111222 
TABS,ioos:station:wmo:42047:1,2019-02-03T21:30:00Z,27.8966,-93.5973,1013.1,11111222 
TABS,ioos:station:wmo:42047:1,2019-02-03T22:00:00Z,27.8966,-93.5973,1013.11,11111222 
TABS,ioos:station:wmo:42047:1,2019-02-03T22:30:00Z,27.8966,-93.5973,1013.48,11111222 
TABS,ioos:station:wmo:42047:1,2019-02-03T23:00:00Z,27.8966,-93.5973,1013.4,11111222 
TABS,ioos:station:wmo:42047:1,2019-02-03T23:30:00Z,27.8966,-93.5973,1013.44,11111222 
TABS,ioos:station:wmo:42047:1,2019-02-04T00:00:00Z,27.8966,-93.5973,1013.55,11111222 
TABS,ioos:station:wmo:42047:1,2019-02-04T00:30:00Z,27.8966,-93.5973,1013.62,11111222 
TABS,ioos:station:wmo:42047:1,2019-02-04T01:00:00Z,27.8966,-93.5973,1013.65,11111222 
TABS,ioos:station:wmo:42047:1,2019-02-04T01:30:00Z,27.8966,-93.5973,1013.96,11111222 
TABS,ioos:station:wmo:42047:1,2019-02-04T02:00:00Z,27.8966,-93.5973,1013.69,11111222 
TABS,ioos:station:wmo:42047:1,2019-02-04T02:30:00Z,27.8966,-93.5973,1013.8,11111222 
TABS,ioos:station:wmo:42047:1,2019-02-04T03:00:00Z,27.8966,-93.5973,1013.96,11111222 
TABS,ioos:station:wmo:42047:1,2019-02-04T03:30:00Z,27.8966,-93.5973,1014.15,11111222 
TABS,ioos:station:wmo:42047:1,2019-02-04T04:00:00Z,27.8966,-93.5973,1014.04,11111222 
TABS,ioos:station:wmo:42047:1,2019-02-04T04:30:00Z,27.8966,-93.5973,1014.05,11111222 
TABS,ioos:station:wmo:42047:1,2019-02-04T05:00:00Z,27.8966,-93.5973,1014.07,11111222 
TABS,ioos:station:wmo:42047:1,2019-02-04T05:30:00Z,27.8966,-93.5973,1013.75,11111222 
TABS,ioos:station:wmo:42047:1,2019-02-04T06:00:00Z,27.8966,-93.5973,1013.65,11111222 
TABS,ioos:station:wmo:42047:1,2019-02-04T06:30:00Z,27.8966,-93.5973,1013.69,11111222 
TABS,ioos:station:wmo:42047:1,2019-02-04T07:00:00Z,27.8966,-93.5973,1013.6,11111222 
TABS,ioos:station:wmo:42047:1,2019-02-04T07:30:00Z,27.8966,-93.5973,1013.48,11111222 
TABS,ioos:station:wmo:42047:1,2019-02-04T08:00:00Z,27.8966,-93.5973,1013.23,11111222 
TABS,ioos:station:wmo:42047:1,2019-02-04T08:30:00Z,27.8966,-93.5973,1012.98,11111222 
TABS,ioos:station:wmo:42047:1,2019-02-04T09:00:00Z,27.8966,-93.5973,1013.03,11111222 
TABS,ioos:station:wmo:42047:1,2019-02-04T09:30:00Z,27.8966,-93.5973,1013.13,11111222 
TABS,ioos:station:wmo:42047:1,2019-02-04T10:00:00Z,27.8966,-93.5973,1013.07,11111222 
TABS,ioos:station:wmo:42047:1,2019-02-04T10:30:00Z,27.8966,-93.5973,1012.91,11111222 
TABS,ioos:station:wmo:42047:1,2019-02-04T11:00:00Z,27.8966,-93.5973,1013.2,11111222 
TABS,ioos:station:wmo:42047:1,2019-02-04T11:30:00Z,27.8966,-93.5973,1013.42,11111222 
TABS,ioos:station:wmo:42047:1,2019-02-04T12:00:00Z,27.8966,-93.5973,1013.7,11111222 
TABS,ioos:station:wmo:42047:1,2019-02-04T12:30:00Z,27.8966,-93.5973,1014.03,11111222 
TABS,ioos:station:wmo:42047:1,2019-02-04T13:00:00Z,27.8966,-93.5973,1014.06,11111222 
TABS,ioos:station:wmo:42047:1,2019-02-04T13:30:00Z,27.8966,-93.5973,1014.42,11111222 
TABS,ioos:station:wmo:42047:1,2019-02-04T14:00:00Z,27.8966,-93.5973,1014.83,11111222 
TABS,ioos:station:wmo:42047:1,2019-02-04T14:30:00Z,27.8966,-93.5973,1015.27,11111222 
TABS,ioos:station:wmo:42047:1,2019-02-04T15:00:00Z,27.8966,-93.5973,1015.53,11111222 
TABS,ioos:station:wmo:42047:1,2019-02-04T15:30:00Z,27.8966,-93.5973,1016.01,11111222 
TABS,ioos:station:wmo:42047:1,2019-02-04T16:00:00Z,27.8966,-93.5973,1016.26,11111222 
TABS,ioos:station:wmo:42047:1,2019-02-04T16:30:00Z,27.8966,-93.5973,1016.11,11111222 
TABS,ioos:station:wmo:42047:1,2019-02-04T17:00:00Z,27.8966,-93.5973,1015.87,11111222 
TABS,ioos:station:wmo:42047:1,2019-02-04T17:30:00Z,27.8966,-93.5973,1015.48,11111222 
TABS,ioos:station:wmo:42047:1,2019-02-04T18:00:00Z,27.8966,-93.5973,1015.19,11111222 
TABS,ioos:station:wmo:42047:1,2019-02-04T18:30:00Z,27.8966,-93.5973,1014.85,11111222 
TABS,ioos:station:wmo:42047:1,2019-02-04T19:00:00Z,27.8966,-93.5973,1014.36,11111222 
TABS,ioos:station:wmo:42047:1,2019-02-04T19:30:00Z,27.8966,-93.5973,1013.93,11111222 
TABS,ioos:station:wmo:42047:1,2019-02-04T20:00:00Z,27.8966,-93.5973,1013.87,11111222 
TABS,ioos:station:wmo:42047:1,2019-02-04T20:30:00Z,27.8966,-93.5973,1013.83,11111222 
TABS,ioos:station:wmo:42047:1,2019-02-04T21:00:00Z,27.8966,-93.5973,1013.71,11111222 
TABS,ioos:station:wmo:42047:1,2019-02-04T21:30:00Z,27.8966,-93.5973,1013.64,11111222 
TABS,ioos:station:wmo:42047:1,2019-02-04T22:00:00Z,27.8966,-93.5973,1013.61,11111222 
TABS,ioos:station:wmo:42047:1,2019-02-04T22:30:00Z,27.8966,-93.5973,1013.79,11111222 
TABS,ioos:station:wmo:42047:1,2019-02-04T23:00:00Z,27.8966,-93.5973,1013.91,11111222 
TABS,ioos:station:wmo:42047:1,2019-02-04T23:30:00Z,27.8966,-93.5973,1013.92,11111222 
TABS,ioos:station:wmo:42047:1,2019-02-05T00:00:00Z,27.8966,-93.5973,1013.99,11111222 
TABS,ioos:station:wmo:42047:1,2019-02-05T00:30:00Z,27.8966,-93.5973,1013.93,11111222 
TABS,ioos:station:wmo:42047:1,2019-02-05T01:00:00Z,27.8966,-93.5973,1014.31,11111222 
TABS,ioos:station:wmo:42047:1,2019-02-05T01:30:00Z,27.8966,-93.5973,1014.4,11111222 
TABS,ioos:station:wmo:42047:1,2019-02-05T02:00:00Z,27.8966,-93.5973,1014.25,11111222 
TABS,ioos:station:wmo:42047:1,2019-02-05T02:30:00Z,27.8966,-93.5973,1014.29,11111222 
TABS,ioos:station:wmo:42047:1,2019-02-05T03:00:00Z,27.8966,-93.5973,1014.44,11111222 
TABS,ioos:station:wmo:42047:1,2019-02-05T03:30:00Z,27.8966,-93.5973,1014.42,11111222 
TABS,ioos:station:wmo:42047:1,2019-02-05T04:00:00Z,27.8966,-93.5973,1014.32,11111222 
TABS,ioos:station:wmo:42047:1,2019-02-05T04:30:00Z,27.8966,-93.5973,1014.51,11111222 
TABS,ioos:station:wmo:42047:1,2019-02-05T05:00:00Z,27.8966,-93.5973,1014.61,11111222 
TABS,ioos:station:wmo:42047:1,2019-02-05T05:30:00Z,27.8966,-93.5973,1014.67,11111222 
TABS,ioos:station:wmo:42047:1,2019-02-05T06:00:00Z,27.8966,-93.5973,1014.56,11111222 
TABS,ioos:station:wmo:42047:1,2019-02-05T06:30:00Z,27.8966,-93.5973,1014.2,11111222 
TABS,ioos:station:wmo:42047:1,2019-02-05T07:00:00Z,27.8966,-93.5973,1014.53,11111222 
TABS,ioos:station:wmo:42047:1,2019-02-05T07:30:00Z,27.8966,-93.5973,1014.31,11111222 
TABS,ioos:station:wmo:42047:1,2019-02-05T08:00:00Z,27.8966,-93.5973,1014.04,11111222 
TABS,ioos:station:wmo:42047:1,2019-02-05T08:30:00Z,27.8966,-93.5973,1013.5,11111222 
TABS,ioos:station:wmo:42047:1,2019-02-05T09:00:00Z,27.8966,-93.5973,1013.29,11111222 
TABS,ioos:station:wmo:42047:1,2019-02-05T09:30:00Z,27.8966,-93.5973,1013.64,11111222 
TABS,ioos:station:wmo:42047:1,2019-02-05T10:00:00Z,27.8966,-93.5973,1013.77,11111222 
TABS,ioos:station:wmo:42047:1,2019-02-05T10:30:00Z,27.8966,-93.5973,1014.14,11111222 
TABS,ioos:station:wmo:42047:1,2019-02-05T11:00:00Z,27.8966,-93.5973,1014.79,11111222 
TABS,ioos:station:wmo:42047:1,2019-02-05T11:30:00Z,27.8966,-93.5973,1015.22,11111222 
TABS,ioos:station:wmo:42047:1,2019-02-05T12:00:00Z,27.8966,-93.5973,1015.35,11111222 
TABS,ioos:station:wmo:42047:1,2019-02-05T12:30:00Z,27.8966,-93.5973,1015.44,11111222 
TABS,ioos:station:wmo:42047:1,2019-02-05T13:00:00Z,27.8966,-93.5973,1015.72,11111222 
TABS,ioos:station:wmo:42047:1,2019-02-05T13:30:00Z,27.8966,-93.5973,1015.76,11111222 
TABS,ioos:station:wmo:42047:1,2019-02-05T14:00:00Z,27.8966,-93.5973,1016.4,11111222 
TABS,ioos:station:wmo:42047:1,2019-02-05T14:30:00Z,27.8966,-93.5973,1016.65,11111222 
TABS,ioos:station:wmo:42047:1,2019-02-05T15:00:00Z,27.8966,-93.5973,1016.68,11111222 
TABS,ioos:station:wmo:42047:1,2019-02-05T15:30:00Z,27.8966,-93.5973,1016.8,11111222 
TABS,ioos:station:wmo:42047:1,2019-02-05T16:00:00Z,27.8966,-93.5973,1017.07,11111222 
TABS,ioos:station:wmo:42047:1,2019-02-05T16:30:00Z,27.8966,-93.5973,1016.87,11111222 
TABS,ioos:station:wmo:42047:1,2019-02-05T17:00:00Z,27.8966,-93.5973,1016.32,11111222 
TABS,ioos:station:wmo:42047:1,2019-02-05T17:30:00Z,27.8966,-93.5973,1016.12,11111222 
TABS,ioos:station:wmo:42047:1,2019-02-05T18:00:00Z,27.8966,-93.5973,1015.74,11111222 
TABS,ioos:station:wmo:42047:1,2019-02-05T18:30:00Z,27.8966,-93.5973,1015.83,11111222 
TABS,ioos:station:wmo:42047:1,2019-02-05T19:00:00Z,27.8966,-93.5973,1015.24,11111222 
TABS,ioos:station:wmo:42047:1,2019-02-05T19:30:00Z,27.8966,-93.5973,1014.78,11111222 
TABS,ioos:station:wmo:42047:1,2019-02-05T20:00:00Z,27.8966,-93.5973,1014.77,11111222 
TABS,ioos:station:wmo:42047:1,2019-02-05T20:30:00Z,27.8966,-93.5973,1014.37,11111222 
TABS,ioos:station:wmo:42047:1,2019-02-05T21:00:00Z,27.8966,-93.5973,1014.26,11111222 
TABS,ioos:station:wmo:42047:1,2019-02-05T21:30:00Z,27.8966,-93.5973,1014.39,11111222 
TABS,ioos:station:wmo:42047:1,2019-02-05T22:00:00Z,27.8966,-93.5973,1014.2,11111222 
TABS,ioos:station:wmo:42047:1,2019-02-05T22:30:00Z,27.8966,-93.5973,1013.83,11111222 
TABS,ioos:station:wmo:42047:1,2019-02-05T23:00:00Z,27.8966,-93.5973,1013.91,11111222 
TABS,ioos:station:wmo:42047:1,2019-02-05T23:30:00Z,27.8966,-93.5973,1013.76,11111222 
TABS,ioos:station:wmo:42047:1,2019-02-06T00:00:00Z,27.8966,-93.5973,1013.8,11111222 
TABS,ioos:station:wmo:42047:1,2019-02-06T00:30:00Z,27.8966,-93.5973,1013.89,11111222 
TABS,ioos:station:wmo:42047:1,2019-02-06T01:00:00Z,27.8966,-93.5973,1014.64,11111222 
TABS,ioos:station:wmo:42047:1,2019-02-06T01:30:00Z,27.8966,-93.5973,1014.86,11111222 
TABS,ioos:station:wmo:42047:1,2019-02-06T02:00:00Z,27.8966,-93.5973,1015.42,11111222 
TABS,ioos:station:wmo:42047:1,2019-02-06T02:30:00Z,27.8966,-93.5973,1015.32,11111222 
TABS,ioos:station:wmo:42047:1,2019-02-06T03:00:00Z,27.8966,-93.5973,1015.58,11111222 
TABS,ioos:station:wmo:42047:1,2019-02-06T03:30:00Z,27.8966,-93.5973,1015.3,11111222 
TABS,ioos:station:wmo:42047:1,2019-02-06T04:00:00Z,27.8966,-93.5973,1015.06,11111222 
TABS,ioos:station:wmo:42047:1,2019-02-06T04:30:00Z,27.8966,-93.5973,1015.09,11111222 
TABS,ioos:station:wmo:42047:1,2019-02-06T05:00:00Z,27.8966,-93.5973,1015.74,11111222 
TABS,ioos:station:wmo:42047:1,2019-02-06T05:30:00Z,27.8966,-93.5973,1015.7,11111222 
TABS,ioos:station:wmo:42047:1,2019-02-06T06:00:00Z,27.8966,-93.5973,1016.03,11111222 
TABS,ioos:station:wmo:42047:1,2019-02-06T06:30:00Z,27.8966,-93.5973,1015.93,11111222 
TABS,ioos:station:wmo:42047:1,2019-02-06T07:00:00Z,27.8966,-93.5973,1015.31,11111222 
TABS,ioos:station:wmo:42047:1,2019-02-06T07:30:00Z,27.8966,-93.5973,1015.0,11111222 
TABS,ioos:station:wmo:42047:1,2019-02-06T08:00:00Z,27.8966,-93.5973,1014.36,11111222 
TABS,ioos:station:wmo:42047:1,2019-02-06T08:30:00Z,27.8966,-93.5973,1014.02,11111222 
TABS,ioos:station:wmo:42047:1,2019-02-06T09:00:00Z,27.8966,-93.5973,1014.44,11111222 
TABS,ioos:station:wmo:42047:1,2019-02-06T09:30:00Z,27.8966,-93.5973,1014.43,11111222 
TABS,ioos:station:wmo:42047:1,2019-02-06T10:00:00Z,27.8966,-93.5973,1014.52,11111222 
TABS,ioos:station:wmo:42047:1,2019-02-06T10:30:00Z,27.8966,-93.5973,1014.64,11111222 
TABS,ioos:station:wmo:42047:1,2019-02-06T11:00:00Z,27.8966,-93.5973,1014.53,11111222 
TABS,ioos:station:wmo:42047:1,2019-02-06T11:30:00Z,27.8966,-93.5973,1014.79,11111222 
TABS,ioos:station:wmo:42047:1,2019-02-06T12:00:00Z,27.8966,-93.5973,1014.6,11111222 
TABS,ioos:station:wmo:42047:1,2019-02-06T12:30:00Z,27.8966,-93.5973,1014.74,11111222 
TABS,ioos:station:wmo:42047:1,2019-02-06T13:00:00Z,27.8966,-93.5973,1014.69,11111222 
TABS,ioos:station:wmo:42047:1,2019-02-06T13:30:00Z,27.8966,-93.5973,1015.05,11111222 
TABS,ioos:station:wmo:42047:1,2019-02-06T14:00:00Z,27.8966,-93.5973,1014.96,11111222 
TABS,ioos:station:wmo:42047:1,2019-02-06T14:30:00Z,27.8966,-93.5973,1015.4,11111222 
TABS,ioos:station:wmo:42047:1,2019-02-06T15:00:00Z,27.8966,-93.5973,1015.27,11111222 
TABS,ioos:station:wmo:42047:1,2019-02-06T15:30:00Z,27.8966,-93.5973,1015.53,11111222 
TABS,ioos:station:wmo:42047:1,2019-02-06T16:00:00Z,27.8966,-93.5973,1015.85,11111222 
TABS,ioos:station:wmo:42047:1,2019-02-06T16:30:00Z,27.8966,-93.5973,1016.21,11111222 
TABS,ioos:station:wmo:42047:1,2019-02-06T17:00:00Z,27.8966,-93.5973,1016.14,11111222 
TABS,ioos:station:wmo:42047:1,2019-02-06T17:30:00Z,27.8966,-93.5973,1015.79,11111222 
TABS,ioos:station:wmo:42047:1,2019-02-06T18:00:00Z,27.8966,-93.5973,1015.87,11111222 
TABS,ioos:station:wmo:42047:1,2019-02-06T18:30:00Z,27.8966,-93.5973,1015.34,11111222 